Terminal Aerodrome Forecast
Issued by NWS Wilmington, NC

Home | Current Version | Previous Version | Text Only | Print | Product List | Glossary On
Versions: 1 2 3 4 5 6 7 8 9 10 11 12 13 14
000
FTUS42 KILM 010500
TAFFLO
TAF
KFLO 010536Z 0106/0206 08006KT 6SM -SHRA SCT020 BKN070 OVC110
     FM010700 07005KT 6SM BR VCSH BKN025
      TEMPO 0109/0111 4SM BR BKN020
     FM011400 08005KT P6SM VCSH BKN035=

USA.gov is the U.S. government's official web portal to all federal, state and local government web resources and services.